ROMMA est une association bénévole à but non lucratif. Votre soutien est indispensable : ADHERER à ROMMA ou FAIRE un DON

Chambon - (38, Isère)

Oisans (2460 m)   Longitude: 06° 10' 42" E   Latitude: 45° 01' 32" N Station partenaire n°803
 

Détail journalier du     <<     >>

Température Humidité Vent Dir Rafale Dir. rafale Neige 1 Neige 2
Heure (°C) (%) (km/h) (km/h) (cm) (cm)
01:00 7.39910OSO15OSO03
02:00 7.2975NE9NE03
03:00 7.5955NE10NE02
04:00 8.0885N9NNE02
05:00 7.6862N6N43
06:00 9.4678N17SO31
07:00 9.36512SO16SO42
08:00 9.36710SO16SO53
09:00 10.0716OSO13OSO41
10:00 11.5744NE12ENE31
11:00 12.1723NNE13NE31
12:00 12.8703NNE13O31
13:00 12.6676O16O51
14:00 13.4697O17O41
15:00 14.1689OSO21OSO41
16:00 14.56413OSO25OSO31
17:00 14.66315OSO26OSO21
18:00 14.96316O31O11
19:00 14.56316O29O00
20:00 13.96417O28O00
21:00 12.67216OSO24O40
22:00 11.3787OSO17OSO40
23:00 10.9823OSO10O41
minuit 10.9793OSO9OSO41

Graphique du 08-08-2019

 

Serveur OMMA